Current weather by "City, St" or "zip code"  
 

Current Conditions: Ellsworth Air Force Base, SD

Fog/Mist


36.0 F

Last Updated on Oct 21 2021, 9:56 am MDT
Humidity: 97%
Wind Speed: SW 4.6 mph
Barometer 30.17 in
Dewpoint: 35.6 F
Visibility: 6.00 mi
Precip: --
Heat Index: NA
Wind Chill: 32 F
Current conditions at:

Ellsworth Air Force Base, SD (KRCA)

Lat: 44.15 Lon: 103.1

Local Radar Image active severe weather and emergency alerts image image weather storm and storm spotter reports image weather observation monitoring service image
Local
Radar
Active
Alerts
Storm Reports Obs
Monitoring

Sign-up For Email & Text Message Weather Alert Notification Services



Advertise Here

Observation History for Ellsworth Air Force Base, SD


Time Wind
(mph)
Vis
(mi)
Weather Precip (in) Temperature (F) Relative
Humidity
Wind
Chill
(F)
Heat
Index
(F)
Pressure
Air Dwpt altimeter
(in)
sea level
(mb)
Rmks
9:56 am MDT SW 4.6 6.00 Fog/Mist -- 36.0 35.6 97% 32 NA 30.17 1025.1
8:56 am MDT SW 6.9 0.25 Fog -- 33.0 31.8 96% 27 NA 30.17 1025.1
7:56 am MDT SW 8.1 0.25 Freezing Fog Trace 32.0 30.4 95% 25 NA 30.17 1025.1
6:56 am MDT SW 3.5 0.50 Freezing Fog -- 32.0 30.0 94% NA NA 30.16 1024.4
4:56 am MDT SE 4.6 10.00 A Few Clouds -- 28.0 24.3 86% 23 NA 30.16 1024.4
3:56 am MDT S 3.5 10.00 Fair -- 27.0 24.6 91% NA NA 30.15 1024.4
2:56 am MDT SE 3.5 10.00 Fair -- 29.0 27.0 91% NA NA 30.15 1024.1
1:56 am MDT N 0.0 10.00 Fair -- 30.0 27.5 90% NA NA 30.14 1023.8
12:56 am MDT W 3.5 10.00 Fair -- 30.0 25.9 84% NA NA 30.16 1024.4
11:56 pm MDT NW 5.8 10.00 Fair -- 28.0 24.6 88% 22 NA 30.16 1024.7
10:56 pm MDT W 4.6 10.00 Fair -- 31.0 27.3 87% 26 NA 30.15 1024.4
9:56 pm MDT N 0.0 10.00 Fair -- 29.0 25.0 86% NA NA 30.16 1025.0
8:56 pm MDT W 6.9 10.00 Fair -- 30.0 26.6 86% 23 NA 30.16 1024.7
7:56 pm MDT NW 4.6 10.00 Fair -- 31.0 27.5 86% 26 NA 30.15 1024.4
6:56 pm MDT N 4.6 10.00 Fair -- 36.0 30.0 79% 32 NA 30.15 1024.1
5:56 pm MDT N 6.9 10.00 Fair -- 37.0 30.7 79% 32 NA 30.14 1023.5
4:56 pm MDT N 9.2 10.00 Fair -- 40.0 32.4 73% 34 NA 30.13 1022.9
3:56 pm MDT N 10.4 10.00 Overcast -- 39.0 32.2 77% 32 NA 30.14 1023.5
2:56 pm MDT N 11.5 10.00 Overcast -- 38.0 32.2 79% 31 NA 30.14 1023.5
1:56 pm MDT N 11.5 10.00 Overcast -- 37.0 31.6 81% 29 NA 30.15 1023.8
12:56 pm MDT N 12.7 10.00 Overcast -- 36.0 31.1 82% 28 NA 30.17 1024.8
11:56 am MDT N 11.5 10.00 Overcast -- 35.0 30.9 85% 27 NA 30.16 1024.2
10:56 am MDT N 10.4 10.00 Overcast -- 34.0 30.9 88% 26 NA 30.16 1024.4

Regional Weather Observation


Rapid City, Rapid City Regional Airport, SD (KRAP)

Fog
36.0 F

Spearfish / Clyde Ice, SD (KSPF)

Fair
43.0 F

Custer, Custer County Airport, SD (KCUT)

Fair
49.0 F

Hulett Municipal Airport, WY (KW43)

Fair
43.0 F

Mondell Field, WY (KECS)

Fair
41.0 F

Faith, SD (KD07)

NULL
35.0 F

Advertise Here


Advertise Here